EW3649 Weather Reports


time (UTC)temp
C
wind
direction
speed
KPH
gust
KPH
rain 1hr
cm
rain 24hr
cm
rain mn
cm
humidity
%
barometer
mb
20260903014005 14 258 3.2 14.5 0.05 0.66 0.66 91 1005.7
20260903013506 14 258 3.2 11.3 0.08 0.66 0.66 91 1005.5
20260903013005 14 258 1.6 11.3 0.08 0.66 0.66 91 1005.4
20260903012505 14 258 3.2 8.0 0.08 0.66 0.66 91 1005.3
20260903011505 14 258 4.8 16.1 0.08 0.66 0.66 91 1005.2
20260903011006 14 258 3.2 16.1 0.08 0.66 0.66 91 1005.1
20260903010005 14 257 3.2 12.9 0.08 0.66 0.66 91 1005.0
20260903005505 14 258 6.4 20.9 0.08 0.66 0.66 91 1005.0
20260903005005 14 260 4.8 20.9 0.08 0.66 0.66 91 1005.0
20260903004505 15 263 3.2 19.3 0.05 0.64 0.64 91 1005.1
20260903004005 15 264 3.2 14.5 0.03 0.61 0.61 92 1005.1
20260903003505 15 264 1.6 11.3 0.00 0.58 0.58 92 1005.0
20260903003006 15 264 0.0 9.7 0.00 0.58 0.58 92 1004.7
20260903002505 15 264 0.0 1.6 0.00 0.58 0.58 92 1004.3
20260903002006 15 0 0.0 0.0 0.03 0.58 0.58 92 1004.0
20260903001505 15 0 0.0 0.0 0.03 0.58 0.58 92 1004.0
20260903001005 15 0 0.0 0.0 0.03 0.58 0.58 92 1004.1
20260903000505 15 0 0.0 0.0 0.03 0.58 0.58 92 1004.1
20260903000005 15 0 0.0 0.0 0.05 0.58 0.58 92 1004.0
20260902235504 15 264 0.0 3.2 0.08 0.58 0.58 92 1004.1
20260902235005 15 264 0.0 3.2 0.10 0.58 0.58 91 1004.0
20260902234505 15 0 0.0 0.0 0.10 0.58 0.58 91 1004.1
20260902234005 15 264 0.0 1.6 0.13 0.58 0.58 91 1004.1
20260902233505 15 264 0.0 1.6 0.15 0.58 0.58 91 1004.2
20260902233005 15 0 0.0 0.0 0.18 0.58 0.58 91 1004.2
20260902232504 15 0 0.0 0.0 0.20 0.58 0.58 91 1004.2
20260902232005 15 0 0.0 0.0 0.18 0.56 0.56 91 1004.1
20260902231005 15 0 0.0 0.0 0.23 0.56 0.56 90 1004.3
20260902230005 15 0 0.0 0.0 0.23 0.53 0.53 90 1004.5
20260902225005 15 0 0.0 0.0 0.20 0.48 0.48 90 1004.7
20260902224005 15 0 0.0 0.0 0.23 0.46 0.46 90 1004.5
20260902223505 15 0 0.0 0.0 0.20 0.43 0.43 89 1004.2
20260902223005 15 0 0.0 0.0 0.18 0.41 0.41 89 1004.2
20260902222504 15 0 0.0 0.0 0.18 0.38 0.38 89 1004.3
20260902222005 15 0 0.0 0.0 0.18 0.38 0.38 88 1004.3
20260902221504 15 0 0.0 0.0 0.18 0.36 0.36 89 1004.4
20260902221005 15 0 0.0 0.0 0.15 0.33 0.33 88 1004.5
20260902220504 15 0 0.0 0.0 0.18 0.33 0.33 88 1004.5
20260902220005 16 0 0.0 0.0 0.15 0.30 0.30 88 1004.5
20260902215504 16 0 0.0 0.0 0.13 0.28 0.28 88 1004.4
20260902215005 16 0 0.0 0.0 0.13 0.28 0.28 87 1004.4
20260902214505 16 0 0.0 0.0 0.13 0.25 0.25 86 1004.5
20260902214005 16 0 0.0 0.0 0.10 0.23 0.23 86 1004.5
20260902213505 16 0 0.0 0.0 0.10 0.23 0.23 86 1004.5
20260902213004 16 0 0.0 0.0 0.10 0.23 0.23 87 1004.5
20260902212504 16 0 0.0 0.0 0.08 0.20 0.20 86 1004.5
20260902212005 16 0 0.0 0.0 0.08 0.20 0.20 86 1004.5
20260902211504 16 0 0.0 0.0 0.05 0.18 0.18 86 1004.4
20260902211005 16 0 0.0 0.0 0.05 0.18 0.18 85 1004.6
20260902210504 16 264 0.0 1.6 0.03 0.15 0.15 85 1004.5
20260902210005 16 264 0.0 1.6 0.03 0.15 0.15 84 1004.5
20260902205005 16 264 0.0 4.8 0.03 0.15 0.15 83 1004.5
20260902204505 16 264 0.0 4.8 0.00 0.13 0.13 83 1004.5
20260902204005 16 0 0.0 0.0 0.05 0.13 0.13 84 1004.5
20260902203005 17 0 0.0 0.0 0.10 0.13 0.13 85 1004.5
20260902202504 17 0 0.0 0.0 0.10 0.13 0.13 84 1004.3
20260902202004 17 0 0.0 0.0 0.10 0.13 0.13 86 1004.4
20260902201505 17 0 0.0 0.0 0.10 0.13 0.13 86 1004.4
20260902201004 17 0 0.0 0.0 0.10 0.13 0.13 86 1004.4
20260902200504 16 0 0.0 0.0 0.10 0.13 0.13 86 1004.6
20260902200005 16 0 0.0 0.0 0.10 0.13 0.13 86 1004.7
20260902195505 16 0 0.0 0.0 0.10 0.13 0.13 85 1004.7
20260902195006 16 264 0.0 4.8 0.10 0.13 0.13 84 1004.8
20260902194504 17 264 0.0 4.8 0.08 0.10 0.10 81 1004.8
20260902194006 17 264 1.6 12.9 0.05 0.08 0.08 78 1004.8
20260902192504 21 0 0.0 0.0 0.00 0.03 0.03 58 1004.6
20260902192005 21 0 0.0 0.0 0.00 0.03 0.03 59 1004.5
20260902191504 21 0 0.0 0.0 0.00 0.03 0.03 62 1004.7
20260902191006 20 0 0.0 0.0 0.00 0.03 0.03 65 1004.7
20260902190504 20 0 0.0 0.0 0.00 0.03 0.03 64 1004.8
20260902190005 20 270 0.0 1.6 0.00 0.03 0.03 62 1004.8
20260902185504 20 270 0.0 1.6 0.00 0.03 0.03 64 1004.8
20260902185004 20 0 0.0 0.0 0.00 0.03 0.03 66 1004.8
20260902184505 19 0 0.0 0.0 0.00 0.03 0.03 67 1004.9
20260902183505 18 0 0.0 0.0 0.00 0.03 0.03 68 1005.0
20260902182504 18 0 0.0 0.0 0.00 0.03 0.03 72 1005.1
20260902182005 18 0 0.0 0.0 0.00 0.03 0.03 72 1005.1
20260902181504 17 0 0.0 0.0 0.00 0.03 0.03 74 1005.2
20260902181005 17 0 0.0 0.0 0.00 0.03 0.03 75 1005.2
20260902180505 17 0 0.0 0.0 0.00 0.03 0.03 74 1005.3
20260902180007 17 0 0.0 0.0 0.00 0.03 0.03 75 1005.4
20260902175504 17 0 0.0 0.0 0.00 0.03 0.03 75 1005.3
20260902175005 17 0 0.0 0.0 0.00 0.03 0.03 74 1005.4
20260902174504 17 0 0.0 0.0 0.00 0.03 0.03 75 1005.5
20260902174005 17 0 0.0 0.0 0.00 0.03 0.03 74 1005.5
20260902173504 17 0 0.0 0.0 0.00 0.03 0.03 75 1005.5
20260902172004 17 0 0.0 0.0 0.00 0.03 0.03 74 1005.7
20260902170505 17 0 0.0 0.0 0.00 0.03 0.03 76 1005.8
20260902165504 17 0 0.0 0.0 0.00 0.03 0.03 77 1006.0
20260902165005 17 0 0.0 0.0 0.00 0.03 0.03 76 1006.1
20260902164504 17 0 0.0 0.0 0.00 0.03 0.03 77 1006.0
20260902164006 17 0 0.0 0.0 0.00 0.03 0.03 75 1006.1
20260902163505 17 0 0.0 0.0 0.00 0.03 0.03 75 1006.1
20260902162504 17 0 0.0 0.0 0.00 0.03 0.03 78 1006.1
20260902162005 17 0 0.0 0.0 0.00 0.03 0.03 78 1006.2
20260902161504 17 0 0.0 0.0 0.00 0.03 0.03 77 1006.1
20260902161006 17 0 0.0 0.0 0.00 0.03 0.03 78 1006.2
20260902160504 17 0 0.0 0.0 0.00 0.03 0.03 78 1006.3
20260902160007 17 0 0.0 0.0 0.00 0.03 0.03 80 1006.3
20260902154005 17 0 0.0 0.0 0.00 0.03 0.03 87 1006.5
20260902153504 16 0 0.0 0.0 0.00 0.03 0.03 90 1006.5
20260902153005 15 0 0.0 0.0 0.00 0.03 0.03 93 1006.6
20260902152504 15 0 0.0 0.0 0.00 0.03 0.03 94 1006.7
20260902152005 14 0 0.0 0.0 0.00 0.03 0.03 93 1006.7
20260902151504 14 0 0.0 0.0 0.00 0.03 0.03 93 1006.8
20260902145504 13 0 0.0 0.0 0.00 0.03 0.03 93 1007.1
20260902145004 13 0 0.0 0.0 0.00 0.03 0.03 93 1007.2
20260902144504 13 0 0.0 0.0 0.00 0.03 0.03 93 1007.2
20260902144005 13 0 0.0 0.0 0.00 0.03 0.03 93 1007.3
20260902143504 13 0 0.0 0.0 0.00 0.03 0.03 93 1007.4
20260902143006 13 0 0.0 0.0 0.00 0.03 0.03 93 1007.5
20260902142504 13 0 0.0 0.0 0.00 0.03 0.03 93 1007.5
20260902142005 13 0 0.0 0.0 0.00 0.03 0.03 93 1007.5
20260902141504 13 0 0.0 0.0 0.00 0.03 0.03 92 1007.4
20260902141004 13 0 0.0 0.0 0.00 0.03 0.03 92 1007.5
20260902140504 13 0 0.0 0.0 0.00 0.03 0.03 92 1007.4
20260902140005 13 0 0.0 0.0 0.00 0.03 0.03 93 1007.5
20260902135504 13 0 0.0 0.0 0.00 0.03 0.03 93 1007.5
20260902135005 13 0 0.0 0.0 0.00 0.03 0.03 93 1007.4
20260902134504 13 0 0.0 0.0 0.00 0.03 0.03 93 1007.4
20260902134005 12 0 0.0 0.0 0.00 0.03 0.03 93 1007.5
20260902133504 12 0 0.0 0.0 0.00 0.03 0.03 92 1007.5
20260902133006 12 0 0.0 0.0 0.00 0.03 0.03 92 1007.4
20260902132504 12 0 0.0 0.0 0.00 0.03 0.03 92 1007.5
20260902132005 12 0 0.0 0.0 0.00 0.03 0.03 91 1007.5
20260902131504 12 0 0.0 0.0 0.00 0.03 0.03 92 1007.4
20260902131004 13 0 0.0 0.0 0.00 0.03 0.03 91 1007.5
20260902130005 13 0 0.0 0.0 0.00 0.03 0.03 91 1007.7
20260902125503 13 0 0.0 0.0 0.00 0.03 0.03 91 1007.8
20260902125004 13 0 0.0 0.0 0.00 0.03 0.03 91 1007.8
20260902124504 13 0 0.0 0.0 0.00 0.03 0.03 92 1007.9
20260902123504 13 0 0.0 0.0 0.00 0.03 0.03 92 1007.8
20260902123004 13 0 0.0 0.0 0.00 0.03 0.03 92 1007.8
20260902122504 13 0 0.0 0.0 0.00 0.03 0.03 92 1007.9
20260902121505 13 0 0.0 0.0 0.00 0.03 0.03 92 1008.0
20260902121004 13 0 0.0 0.0 0.00 0.03 0.03 92 1008.0
20260902120504 13 0 0.0 0.0 0.00 0.03 0.03 92 1008.0
20260902120004 13 0 0.0 0.0 0.00 0.03 0.03 92 1008.0
20260902115504 13 0 0.0 0.0 0.00 0.03 0.03 92 1008.1
20260902115004 13 0 0.0 0.0 0.00 0.03 0.03 91 1008.1
20260902114504 13 0 0.0 0.0 0.00 0.03 0.03 91 1008.2
20260902114006 13 0 0.0 0.0 0.00 0.03 0.03 91 1008.2
20260902113504 13 0 0.0 0.0 0.00 0.03 0.03 91 1008.3
20260902113004 14 0 0.0 0.0 0.00 0.03 0.03 91 1008.2
20260902112005 14 0 0.0 0.0 0.00 0.03 0.03 91 1008.3
20260902111504 14 0 0.0 0.0 0.00 0.03 0.03 91 1008.4
20260902110505 14 0 0.0 0.0 0.00 0.03 0.03 92 1008.5
20260902105503 14 0 0.0 0.0 0.00 0.03 0.03 91 1008.5
20260902104504 14 0 0.0 0.0 0.00 0.03 0.03 91 1008.5
20260902104004 14 0 0.0 0.0 0.00 0.03 0.03 91 1008.5
20260902103504 14 0 0.0 0.0 0.00 0.03 0.03 91 1008.6
20260902103005 14 0 0.0 0.0 0.00 0.03 0.03 91 1008.6
20260902102004 14 0 0.0 0.0 0.00 0.03 0.03 91 1008.7
20260902101504 14 0 0.0 0.0 0.00 0.03 0.03 91 1008.8
20260902101004 14 0 0.0 0.0 0.00 0.03 0.03 91 1008.9
20260902100504 14 0 0.0 0.0 0.00 0.03 0.03 91 1008.9
20260902100005 14 0 0.0 0.0 0.00 0.03 0.03 90 1008.8
20260902095004 14 0 0.0 0.0 0.00 0.03 0.03 90 1008.9
20260902094503 14 0 0.0 0.0 0.00 0.03 0.03 90 1008.9
20260902094005 14 0 0.0 0.0 0.03 0.03 0.03 91 1008.9
20260902093004 15 0 0.0 0.0 0.03 0.03 0.03 90 1008.9
20260902092504 15 0 0.0 0.0 0.03 0.03 0.03 90 1009.0
20260902092004 15 0 0.0 0.0 0.03 0.03 0.03 90 1009.0
20260902090504 15 0 0.0 0.0 0.03 0.03 0.03 90 1009.1
20260902090005 15 0 0.0 0.0 0.03 0.03 0.03 90 1009.2
20260902085503 15 0 0.0 0.0 0.03 0.03 0.03 90 1009.2
20260902085005 15 0 0.0 0.0 0.03 0.03 0.03 90 1009.3
20260902084504 15 0 0.0 0.0 0.03 0.03 0.03 90 1009.3
20260902083503 15 0 0.0 0.0 0.00 0.00 0.00 90 1009.4
20260902083005 15 0 0.0 0.0 0.00 0.00 0.00 89 1009.4
20260902082504 15 0 0.0 0.0 0.00 0.00 0.00 89 1009.4
20260902082004 15 0 0.0 0.0 0.00 0.00 0.00 89 1009.4
20260902081503 15 0 0.0 0.0 0.00 0.00 0.00 89 1009.5
20260902081004 15 0 0.0 0.0 0.00 0.00 0.00 89 1009.5
20260902080503 15 0 0.0 0.0 0.00 0.00 0.00 89 1009.5
20260902080004 15 0 0.0 0.0 0.00 0.00 0.00 89 1009.5
20260902075504 15 0 0.0 0.0 0.00 0.00 0.00 89 1009.5
20260902075004 15 0 0.0 0.0 0.00 0.00 0.00 89 1009.5
20260902074504 15 0 0.0 0.0 0.00 0.00 0.00 89 1009.7
20260902074004 15 0 0.0 0.0 0.00 0.00 0.00 89 1009.7
20260902073503 15 0 0.0 0.0 0.00 0.00 0.00 89 1009.7
20260902073004 15 0 0.0 0.0 0.00 0.00 0.00 89 1009.7
20260902072504 15 0 0.0 0.0 0.00 0.00 0.00 89 1009.7
20260902072004 15 0 0.0 0.0 0.00 0.00 0.00 89 1009.7
20260902071503 15 0 0.0 0.0 0.00 0.00 0.00 89 1009.8
20260902070503 15 0 0.0 0.0 0.00 0.00 0.00 89 1009.8
20260902070007 15 0 0.0 0.0 0.00 0.00 0.00 89 1009.9
20260902065503 15 0 0.0 0.0 0.00 0.00 0.00 89 1009.9
20260902065004 15 0 0.0 0.0 0.00 0.00 0.00 89 1009.9
20260902064504 15 0 0.0 0.0 0.00 0.00 0.00 89 1009.9
20260902064004 15 0 0.0 0.0 0.00 0.00 0.00 89 1009.9
20260902063505 15 0 0.0 0.0 0.00 0.00 0.00 89 1009.9
20260902063006 15 0 0.0 0.0 0.00 0.00 0.00 89 1009.9
20260902062505 15 0 0.0 0.0 0.00 0.00 0.00 89 1010.0
20260902061006 15 0 0.0 0.0 0.00 0.00 0.00 89 1010.0
20260902060005 15 0 0.0 0.0 0.00 0.00 0.00 89 1010.0
20260902055505 15 0 0.0 0.0 0.00 0.00 0.00 89 1010.0
20260902054506 15 0 0.0 0.0 0.00 0.00 0.00 89 1010.0
20260902054006 15 0 0.0 0.0 0.00 0.00 0.00 89 1010.0
20260902053505 15 0 0.0 0.0 0.00 0.00 0.00 89 1010.1
20260902053006 15 0 0.0 0.0 0.00 0.00 0.00 89 1010.1
20260902052505 15 0 0.0 0.0 0.00 0.00 0.00 89 1010.2
20260902052006 15 0 0.0 0.0 0.00 0.00 0.00 89 1010.2
20260902051505 15 0 0.0 0.0 0.00 0.00 0.00 89 1010.3
20260902051006 15 0 0.0 0.0 0.00 0.00 0.00 89 1010.2
20260902050505 15 0 0.0 0.0 0.00 0.00 0.00 89 1010.2
20260902050007 15 0 0.0 0.0 0.00 0.00 0.00 89 1010.3
20260902045506 15 0 0.0 0.0 0.00 0.00 0.00 89 1010.2
20260902045005 15 0 0.0 0.0 0.00 0.00 0.00 89 1010.3
20260902044506 15 0 0.0 0.0 0.00 0.00 0.00 89 1010.2
20260902044006 15 0 0.0 0.0 0.00 0.00 0.00 88 1010.3
20260902043505 15 0 0.0 0.0 0.00 0.00 0.00 88 1010.3
20260902042505 15 0 0.0 0.0 0.00 0.00 0.00 88 1010.3
20260902042005 15 0 0.0 0.0 0.00 0.00 0.00 88 1010.2
20260902041006 15 0 0.0 0.0 0.00 0.00 0.00 87 1010.2
20260902040504 15 0 0.0 0.0 0.00 0.00 0.00 87 1010.2
20260902040005 15 0 0.0 0.0 0.00 0.00 0.00 87 1010.3
20260902035006 16 0 0.0 0.0 0.00 0.00 0.00 87 1010.4
20260902034505 16 0 0.0 0.0 0.00 0.00 0.00 86 1010.4
20260902034005 16 0 0.0 0.0 0.00 0.00 0.00 86 1010.4
20260902033505 16 0 0.0 0.0 0.00 0.00 0.00 86 1010.4
20260902033005 16 0 0.0 0.0 0.00 0.00 0.00 85 1010.3
20260902032505 16 0 0.0 0.0 0.00 0.00 0.00 85 1010.4
20260902032006 16 0 0.0 0.0 0.00 0.00 0.00 84 1010.3
20260902031006 16 0 0.0 0.0 0.00 0.00 0.00 83 1010.2
20260902030505 16 0 0.0 0.0 0.00 0.00 0.00 82 1010.2
20260902030006 17 270 0.0 6.4 0.00 0.00 0.00 81 1010.1
20260902025505 17 270 0.0 6.4 0.00 0.00 0.00 79 1010.1
20260902025006 17 270 0.0 3.2 0.00 0.00 0.00 78 1010.0
20260902024005 17 270 0.0 11.3 0.00 0.00 0.00 75 1009.9
20260902023505 17 270 0.0 6.4 0.00 0.00 0.00 74 1009.8
20260902023006 17 270 0.0 6.4 0.00 0.00 0.00 74 1009.8
20260902022505 17 0 0.0 0.0 0.00 0.00 0.00 74 1009.7
20260902022005 17 0 0.0 0.0 0.00 0.00 0.00 74 1009.7
20260902021505 17 270 0.0 1.6 0.00 0.00 0.00 74 1009.8
20260902021005 17 270 0.0 3.2 0.00 0.00 0.00 75 1009.8
20260902020504 17 270 0.0 3.2 0.00 0.00 0.00 74 1009.8
20260902020005 17 270 0.0 1.6 0.00 0.00 0.00 74 1009.7